GW2327 Weather Reports


time (UTC)temp
C
wind
direction
speed
KPH
gust
KPH
rain 1hr
cm
rain 24hr
cm
rain mn
cm
humidity
%
barometer
mb
20260506001543 17 177 3.2 9.7 0.00 0.00 0.00 67 1008.9
20260506000106 17 0 1.6 9.7 0.00 0.00 0.00 67 1008.9
20260505234545 17 170 4.8 12.9 0.00 0.00 0.00 67 1008.8
20260505233035 17 173 3.2 12.9 0.00 0.00 0.00 66 1008.7
20260505231537 18 185 6.4 14.5 0.00 0.00 0.00 65 1008.3
20260505230058 18 209 4.8 14.5 0.00 0.00 0.00 65 1008.1
20260505224542 18 186 3.2 11.3 0.00 0.00 0.00 64 1007.9
20260505223040 19 209 1.6 24.1 0.00 0.00 0.00 63 1008.2
20260505221539 19 187 3.2 8.0 0.00 0.00 0.00 65 1008.3
20260505220034 19 173 3.2 12.9 0.00 0.00 0.00 64 1008.2
20260505214533 19 163 3.2 9.7 0.00 0.00 0.00 64 1008.0
20260505213040 19 178 4.8 11.3 0.00 0.00 0.00 64 1008.1
20260505211542 20 123 4.8 14.5 0.00 0.00 0.00 63 1007.8
20260505210037 20 154 1.6 9.7 0.00 0.00 0.00 63 1008.1
20260505204547 20 239 1.6 11.3 0.00 0.00 0.00 61 1008.0
20260505203053 21 215 3.2 11.3 0.00 0.00 0.00 61 1007.8
20260505201543 21 265 4.8 9.7 0.00 0.00 0.00 61 1008.0
20260505200039 21 155 3.2 12.9 0.00 0.00 0.00 62 1008.3
20260505194551 22 148 1.6 12.9 0.00 0.00 0.00 62 1008.3
20260505193038 21 161 3.2 11.3 0.00 0.00 0.00 62 1008.3
20260505191554 22 151 4.8 12.9 0.00 0.00 0.00 60 1008.6
20260505190040 21 160 6.4 14.5 0.00 0.00 0.00 61 1008.9
20260505184538 22 190 3.2 11.3 0.00 0.00 0.00 60 1008.8
20260505183040 22 166 6.4 16.1 0.00 0.00 0.00 61 1008.8
20260505181539 22 197 3.2 16.1 0.00 0.00 0.00 60 1008.9
20260505180045 22 163 4.8 11.3 0.00 0.00 0.00 58 1008.9
20260505174543 22 147 4.8 12.9 0.00 0.00 0.00 61 1009.0
20260505173042 22 146 4.8 17.7 0.00 0.00 0.00 59 1009.1
20260505171538 22 171 3.2 11.3 0.00 0.00 0.00 61 1009.1
20260505170038 22 116 3.2 11.3 0.00 0.00 0.00 61 1009.1
20260505164537 22 52 3.2 11.3 0.00 0.00 0.00 63 1009.6
20260505163043 21 183 1.6 11.3 0.00 0.00 0.00 65 1009.6
20260505161541 21 216 4.8 11.3 0.00 0.00 0.00 64 1009.9
20260505153039 21 222 3.2 9.7 0.00 0.00 0.00 66 1010.2
20260505151537 20 141 3.2 9.7 0.00 0.00 0.00 66 1010.4
20260505150104 20 147 1.6 9.7 0.00 0.00 0.00 69 1010.4
20260505124547 13 140 0.0 3.2 0.00 0.00 0.00 83 1010.5
20260505123049 13 140 0.0 8.0 0.00 0.00 0.00 84 1010.6
20260505121604 13 179 1.6 8.0 0.00 0.00 0.00 85 1010.6
20260505120038 13 33 1.6 4.8 0.00 0.00 0.00 85 1010.8
20260505114538 12 206 1.6 8.0 0.00 0.00 0.00 87 1010.8
20260505113041 12 166 1.6 6.4 0.00 0.00 0.00 88 1010.8
20260505111540 11 0 0.0 8.0 0.00 0.00 0.00 88 1010.7
20260505101542 10 206 0.0 3.2 0.00 0.00 0.00 89 1009.9
20260505100043 10 192 1.6 4.8 0.00 0.00 0.00 89 1009.5
20260505094541 10 206 1.6 4.8 0.00 0.00 0.00 89 1009.7
20260505093033 10 206 1.6 4.8 0.00 0.00 0.00 89 1009.6
20260505091559 10 202 0.0 3.2 0.00 0.00 0.00 89 1009.6
20260505090055 10 202 0.0 4.8 0.00 0.00 0.00 89 1009.5
20260505084539 10 190 1.6 4.8 0.00 0.00 0.00 90 1009.7
20260505083045 9 172 0.0 6.4 0.00 0.00 0.00 89 1009.7
20260505081545 8 0 0.0 1.6 0.00 0.00 0.00 89 1009.8
20260505080048 9 0 0.0 0.0 0.00 0.00 0.00 88 1009.8
20260505074542 8 0 0.0 3.2 0.00 0.00 0.00 88 1009.7
20260505073048 8 0 0.0 1.6 0.00 0.00 0.00 87 1009.7
20260505071541 9 176 0.0 1.6 0.00 0.00 0.00 87 1009.7
20260505070036 9 0 0.0 1.6 0.00 0.00 0.00 87 1009.8
20260505064539 9 0 0.0 0.0 0.00 0.00 0.00 86 1009.9
20260505063046 9 0 0.0 0.0 0.00 0.00 0.00 85 1010.0
20260505061540 10 0 0.0 1.6 0.00 0.00 0.00 85 1010.0
20260505060039 9 0 0.0 0.0 0.00 0.00 0.00 85 1010.2
20260505054551 9 0 0.0 0.0 0.00 0.00 0.00 84 1010.3
20260505053047 9 0 0.0 1.6 0.00 0.00 0.00 83 1010.4
20260505051544 10 0 0.0 0.0 0.00 0.00 0.00 82 1010.4
20260505041550 10 0 0.0 1.6 0.00 0.00 0.00 82 1010.7
20260505040043 10 179 0.0 1.6 0.00 0.00 0.00 81 1010.8
20260505034539 10 0 0.0 0.0 0.00 0.00 0.00 80 1010.8
20260505033035 10 0 0.0 0.0 0.00 0.00 0.00 79 1010.7
20260505031540 10 0 0.0 0.0 0.00 0.00 0.00 78 1010.8
20260505030054 10 0 0.0 1.6 0.00 0.00 0.00 78 1010.8
20260505024537 11 0 0.0 1.6 0.00 0.00 0.00 76 1010.8
20260505023040 11 0 0.0 3.2 0.00 0.00 0.00 76 1010.8
20260505021549 12 186 0.0 3.2 0.00 0.00 0.00 74 1011.0
20260505020048 11 0 0.0 3.2 0.00 0.00 0.00 74 1010.8
20260505014536 12 200 0.0 4.8 0.00 0.00 0.00 73 1010.7
20260505013041 12 184 1.6 6.4 0.00 0.00 0.00 71 1010.8
20260505011535 12 182 1.6 6.4 0.00 0.00 0.00 70 1010.6
20260505010103 12 205 1.6 6.4 0.00 0.00 0.00 68 1010.3
20260505004537 13 192 3.2 9.7 0.00 0.00 0.00 67 1010.1
20260505003046 13 190 1.6 6.4 0.00 0.00 0.00 65 1010.0